Location: Unspecified
(0.0000°N, 0.0000°E)
Time: 04:55:35
(UTC+00:00)

COSMOS-2414 - Visible Passes

Search period start: 21 April 2024 00:00
Search period end: 01 May 2024 00:00
Orbit: 906 x 966 km, 82.9° (Epoch: 20 April)

Date Brightness Start Highest point End Pass type
(mag) Time Alt. Az. Time Alt. Az. Time Alt. Az.
21 Apr 5.8 04:31:29 10° S 04:37:30 88° W 04:43:25 10° N visible
22 Apr 8.8 03:06:36 10° E 03:06:50 10° E 03:07:04 10° E visible
22 Apr 6.0 04:45:18 10° SSW 04:51:05 52° W 04:56:48 10° NNW visible
23 Apr 8.2 03:16:27 10° SE 03:20:27 19° E 03:24:25 10° NE visible
23 Apr 6.6 04:59:31 10° SSW 05:04:41 31° W 05:09:48 10° NNW visible
24 Apr 7.4 03:30:20 17° SE 03:34:04 31° E 03:39:11 10° NNE visible
24 Apr 7.1 05:14:22 10° SW 05:18:16 18° W 05:22:09 10° NW visible
25 Apr 6.5 03:45:37 37° SSE 03:47:41 53° E 03:53:23 10° NNE visible
26 Apr 5.7 04:00:35 72° S 04:01:17 89° E 04:07:10 10° N visible
27 Apr 5.9 04:15:20 53° WNW 04:15:20 53° WNW 04:20:35 10° N visible
28 Apr 8.3 02:46:01 16° ENE 02:46:01 16° ENE 02:48:01 10° NE visible
28 Apr 6.8 04:29:55 28° WNW 04:29:55 28° WNW 04:33:36 10° NNW visible
29 Apr 7.9 03:00:29 21° NE 03:00:29 21° NE 03:02:53 10° NNE visible
29 Apr 7.5 04:44:22 15° WNW 04:44:22 15° WNW 04:46:02 10° NW visible
30 Apr 7.7 03:14:50 24° NNE 03:14:50 24° NNE 03:17:06 10° NNE visible
